Other Public Products
Issued by NWS Grand Forks, ND

Home | Current Version | Previous Version | Text Only | Print | Product List | Glossary Off
Versions: 1 2 3 4 5 6 7 8 9 10 11 12 13 14 15 16 17 18 19 20 21 22 23 24 25 26 27 28 29 30 31 32 33 34 35 36 37 38 39 40 41 42 43 44 45 46 47 48 49 50

000
FPUS83 KFGF 201510
OPUFGF
PRAIRIE TO PINES WEATHER ROUNDUP
NATIONAL WEATHER SERVICE EASTERN NORTH DAKOTA/GRAND FORKS ND
1000 AM CDT WED SEP 20 2017

 **SATELLITE DATA USED TO AUGMENT SKY COVER AT AUTOMATED STATIONS**
 *****  WEATHER ACROSS EASTERN NORTH DAKOTA  *****

CITY           SKY/WX    TMP DP  RH WIND       PRES   REMARKS
GRAND FORKS    FAIR      58  50  75 SW13      29.66R
GRAND FORKS AF FAIR      59  47  63 W10G22    29.66R
GRAND CITY NWS NOT AVBL
BUXTON         NOT AVBL
DEVILS LAKE    FAIR      54  46  74 SW15      29.66R
FARGO          FAIR      58  48  69 W12       29.72R
WAHPETON ARPT  FAIR      55  46  71 W13       29.76R
$$

 *****  WEATHER ACROSS CENTRAL AND WESTERN NORTH DAKOTA  *****

CITY           SKY/WX    TMP DP  RH WIND       PRES   REMARKS
JAMESTOWN      FAIR      55  44  66 W9        29.72R
BISMARCK       FAIR      54  44  69 SW10      29.73R
MINOT          FAIR      55  44  66 S10       29.61R
MINOT AFB      FAIR      55  44  66 SW13      29.59R
GARRISON         N/A     53  44  71 W13       29.66R
WILLISTON      FAIR      50  41  71 SW15      29.61R
DICKINSON      FAIR      52  41  66 SW18      29.68R
HETTINGER      FAIR      51  42  71 SW12      29.76S
$$

 *****  OTHER OBSERVATIONS NORTHEAST NORTH DAKOTA  *****

CITY           SKY/WX    TMP DP  RH WIND       PRES   REMARKS
WALHALLA       FAIR     N/A N/A N/A SW12      29.61R
LANGDON        FAIR      55  50  82 SW16G24   29.62R
CAVALIER       FAIR      57  48  72 SW13G21   29.62R
GRAFTON        FAIR      59  50  72 W16G22    29.66R
CANDO          FAIR      52  48  87 W12       29.65R
FORT TOTTEN      N/A     53  45  75 SW7       29.95S
ROLLA          FAIR      50  46  87 SW13      29.61S
RUGBY          FAIR      52  46  82 SW12      29.62S
 ***** THE ABOVE OBSERVATIONS ARE NON NWS ARE NOT QUALITY
        CONTROLLED AND MAY MIS-REPORT RAIN FOR SNOW...
$$

 *****  OTHER OBSERVATIONS SOUTHEAST NORTH DAKOTA *****

CITY           SKY/WX    TMP DP  RH WIND       PRES   REMARKS
COOPERSTOWN    FAIR      55  46  71 W14       29.71R
VALLEY CITY    FAIR      54  48  82 W15       29.74R
OAKES          NOT AVBL
GWINNER        SUNNY     55  46  71 W10       29.75R
SHEYENNE NWR     N/A     57  49  74 W9        29.95S
BUFFALO        NOT AVBL
WYNDMERE       NOT AVBL
 ***** THE ABOVE OBSERVATIONS ARE NON NWS ARE NOT QUALITY
       CONTROLLED AND MAY MIS-REPORT RAIN FOR SNOW...
$$

  *****  WEATHER ACROSS NORTHERN MINNESOTA  *****

CITY           SKY/WX    TMP DP  RH WIND       PRES   REMARKS
FLAG ISLAND    FAIR      55  54  94 SW9       29.58R
WARROAD        FAIR      57  54  88 W14G21    29.61R
ROSEAU         FAIR      55  52  88 W10       29.61R
HALLOCK        CLOUDY    57  50  77 W15       29.62R
THF RVR FALLS  FAIR      57  50  77 W14       29.68R
HALSTAD        NOT AVBL
FOSSTON        PTSUNNY   55  52  88 W9        29.70R
BAUDETTE       FAIR      59  56  89 W10       29.61S
WASKISH        CLOUDY    57  55  94 W15       29.65R
CROOKSTON      FAIR      55  50  82 W10       29.69R
$$
  *****  WEATHER ACROSS CENTRAL AND WEST MINNESOTA  *****

CITY           SKY/WX    TMP DP  RH WIND       PRES   REMARKS
BEMIDJI        CLOUDY    56  52  84 W13       29.68R
PARK RAPIDS    FAIR      59  51  75 W15       29.71R
WADENA         FAIR      57  48  72 W7        29.73R
DETROIT LAKES  FAIR      55  48  76 W14       29.74R
MOORHEAD       FAIR      57  46  67 W10       29.73R
FERGUS FALLS   FAIR      57  48  72 W14       29.75R
ELBOW LAKE     FAIR      57  49  74 NW12      29.76R
MORRIS MN      FAIR      61  50  67 NW13      29.76R
STAPLES        FAIR      59  48  67 W13G21    29.73R
WHEATON        FAIR      61  45  55 W12       29.78R
$$
  *****  WEATHER ELSEWHERE ACROSS MINNESOTA  *****

CITY           SKY/WX    TMP DP  RH WIND       PRES   REMARKS
DULUTH         CLOUDY    63  63 100 S12       29.65F FOG
INTRNTL FALLS  LGT RAIN  62  59  90 W8        29.61R
ELY            CLOUDY    63  61  94 S13G20    29.64F
CLOQUET        CLOUDY    63  61  94 SE3       29.65S FOG
BRAINERD       PTSUNNY   62  57  83 W9        29.70R
HIBBING        LGT RAIN  62  62 100 S10G16    29.62F FOG
ALEXANDRIA     FAIR      59  51  75 NW12G20   29.76R
SAINT CLOUD    CLOUDY    63  58  83 W13       29.72R
MINNEAPOLIS    PTSUNNY   69  63  81 W9        29.71R
$$

  *****  WEATHER ACROSS SOUTH DAKOTA  *****

CITY           SKY/WX    TMP DP  RH WIND       PRES   REMARKS
SIOUX FALLS    FAIR      61  52  72 NW14      29.83R
BROOKINGS      FAIR      57  49  74 NW14      29.82
WATERTOWN      FAIR      57  46  66 W12       29.79R
HURON          FAIR      60  46  59 W10       29.83R
SISSETON         N/A     60  47  61 W18G25    29.76R
ABERDEEN       FAIR      56  45  66 W8        29.79S
MITCHELL       FAIR      60  51  72 W12       29.84S
PIERRE         FAIR      56  42  59 SW9       29.82R
MOBRIDGE       FAIR      53  45  74 S8        29.77R
RAPID CITY     SUNNY     50  39  66 S7        29.83R
$$

  *****  SOME WEATHER IN NEARBY STATES *****

CITY           SKY/WX    TMP DP  RH WIND       PRES   REMARKS
GLASGOW MT     FAIR      49  37  63 SW9       29.56F
GREAT FALLS MT FAIR      48  26  42 SW20      29.56S
CHEYENNE WY    FAIR      50  31  48 SW13      30.00S
SCOTTSBLUFF NE FAIR      58  30  34 NW17      29.92S
OMAHA NE       FAIR      70  54  56 N18       29.79R
DES MOINES IA  FAIR      81  70  69 S12       29.74S
DAVENPORT IA   FAIR      80  68  66 S15G21    29.84F
CHICAGO IL     FAIR      78  66  66 S10       29.90F
EAU CLAIRE WI  CLOUDY    71  65  81 S13       29.72R
LA CROSSE WI   FAIR      77  66  68 S20G25    29.73F
$$

  *****  SOME NATIONAL WEATHER *****

CITY           SKY/WX    TMP DP  RH WIND       PRES   REMARKS
LA GUARDIA NY  PTSUNNY   75  65  70 N15G24    29.87S
RALEIGH NC     FAIR      81  69  67 SW10      30.03F
ATLANTA GA     FAIR      83  66  56 N8        30.08S
NEW ORLEANS LA PTSUNNY   84  76  76 SW5       30.03R HX  93
OKLAHOMA CITY  FAIR      81  71  71 S20G25    29.82R
ALBUQUERQUE NM FAIR      67  37  33 S5        30.10R
SALT LAKE CITY FAIR      54  39  57 SE15      29.92F
LOS ANGELES CA FAIR      67  61  81 E3        29.89R
BOISE ID       CLOUDY    54  33  45 SE16      29.73F
SEATTLE WA     CLOUDY    51  50  96 W6        29.63S
$$

*** WEATHER ACROSS MANITOBA...SASKATCHEWAN AND ONTARIO ***
                ***ONTARIO***

CITY           SKY/WX    TMP DP  RH WIND       PRES   REMARKS
GERALDTON      CLOUDY    57  55  94 SE14G21   29.86F
THUNDER BAY    CLOUDY    59  59 100 E9        29.73F
SIOUX LOOKOUT  CLOUDY    61  59  94 S9G17     29.56S
TORONTO        PTSUNNY   73  66  78 E3        30.05F
BIG TROUT LK   SUNNY     55  48  76 E10G23    29.65F
PICKLE LAKE    CLOUDY    57  52  82 SE21G28   29.61F
DRYDEN         LGT RAIN  61  59  94 S17G24    29.54S FOG
KENORA         LGT RAIN  54  52  94 W9        29.57R
$$
                *** MANITOBA***

CITY           SKY/WX    TMP DP  RH WIND       PRES   REMARKS
BRANDON        PTSUNNY   54  45  71 W18       29.53R
DAUPHIN        PTSUNNY   50  45  81 W20G25    29.42R
ISLAND LAKE    RAIN      55  55 100 E28G37    29.35F FOG
PILOT MOUND      N/A     54  45  71 SW17G23     N/A
THE PAS        LGT RAIN  50  48  93 SW9       29.14F FOG
THOMPSON       SHOWER    46  45  93 NE17G29   29.40F
WINNIPEG       MOSUNNY   57  48  72 SW16G25   29.54R
LYNN LAKE      RAIN      45  43  93 E22G40    29.43F FOG
CHURCHILL      CLOUDY    41  37  87 E20       29.97F
GILLAM         LGT RAIN  46  39  76 E13G24    29.63F
$$
                ***SASKATCHEWAN***

CITY           SKY/WX    TMP DP  RH WIND       PRES   REMARKS
ESTEVAN        PTSUNNY   48  41  76 SW17G23   29.55R
KINDERSLEY     SUNNY     37  32  81 SE5       29.38S
LLOYDMINSTER   MOSUNNY   37  36  93 SW5       29.34F
PRINCE ALBERT  PTSUNNY   43  37  81 W10       29.34R
REGINA         MOSUNNY   45  36  70 SW10      29.46F
YORKTON        SUNNY     48  39  71 SW13      29.41R



USA.gov is the U.S. government's official web portal to all federal, state and local government web resources and services.